Regional Weather Roundup
Issued by NWS

Home | Current Version | Previous Version | Graphics & Text | Print | Product List | Glossary On
Versions: 1 2 3 4 5 6 7 8 9 10 11 12 13 14 15 16 17 18 19 20 21 22 23 24 25 26 27 28
000
ASUS45 KGTF 051710
RWRMT
MONTANA HOURLY WEATHER ROUNDUP
NATIONAL WEATHER SERVICE GREAT FALLS MT
1100 AM MDT TUE MAY 05 2015

NOTE: "FAIR" INDICATES FEW OR NO CLOUDS BELOW 12000 FEET WITH NO
SIGNIFICANT WEATHER AND/OR OBSTRUCTIONS TO VISIBILITY.

MTZ001>007-043-051800-
WEST OF THE DIVIDE

CITY           SKY/WX    TMP DP  RH WIND       PRES   REMARKS
KALISPELL      PTSUNNY   59  25  27 W7        29.83S
MISSOULA       PTSUNNY   61  39  44 NW14      29.85S
BUTTE          CLOUDY    55  31  39 N3        29.87F
DEER LODGE       N/A     61  34  36 N3        29.88F
EUREKA           N/A     61  23  23 SW12      29.83S
HAMILTON         N/A     61  36  39 N3        29.82F
LIBBY            N/A     57  25  28 S7        29.88R
$$

MTZ008-052>055-051800-
SOUTHWEST MONTANA

CITY           SKY/WX    TMP DP  RH WIND       PRES   REMARKS
BOZEMAN        CLOUDY    61  44  53 N3        29.83S
DILLON         CLOUDY    62  36  37 S3        29.83F
$$

MTZ009-010-012-014-046-048-049-054-051800-
EAST SLOPES AND CENTRAL MONTANA

CITY           SKY/WX    TMP DP  RH WIND       PRES   REMARKS
CUT BANK       CLOUDY    59  36  42 W24       29.77S
GREAT FALLS    MOSUNNY   65  35  33 VRB3      29.78S
HELENA         CLOUDY    65  33  30 CALM      29.82S
$$

MTZ011-013-016-021-045-047-050-051-051800-
NORTH CENTRAL MONTANA

CITY           SKY/WX    TMP DP  RH WIND       PRES   REMARKS
HAVRE          MOSUNNY   71  38  29 VRB5      29.73F
LEWISTOWN      PTSUNNY   72  42  34 CALM      29.78S
CHINOOK          N/A     66  45  45 CALM      29.73F
FORT BENTON      N/A     68  36  30 SW7       29.77F
$$

MTZ017>020-022>042-056>058-061-062-051800-
EASTERN PLAINS

CITY           SKY/WX    TMP DP  RH WIND       PRES   REMARKS
BAKER          SUNNY     70  44  39 S20G26    29.88F
BILLINGS       MOSUNNY   66  43  43 CALM      29.80F
GLASGOW        SUNNY     67  41  38 SE14      29.79F
JORDAN           N/A     68  42  38 SE10G22   29.79S
LIVINGSTON     MOSUNNY   65  40  39 CALM      29.80F
MILES CITY     SUNNY     70  44  39 SE10      29.81F
SIDNEY         SUNNY     72  39  30 SE20      29.85F
WOLF POINT     SUNNY     70  40  33 SE6       29.82F
BIG TIMBER       N/A     66  43  42 S6        29.82F
FORSYTH          N/A     72  45  37 S3        29.79S
PLENTYWOOD       N/A     68  37  32 S17G24    29.86F
POPLAR           N/A     70  39  32 SE14      29.83F
$$

REGIONAL REPORTS...DAKOTAS

CITY           SKY/WX    TMP DP  RH WIND       PRES   REMARKS
WILLISTON      SUNNY     72  35  25 S16G23    29.88F
MINOT          MOSUNNY   70  33  25 S22G32    29.97F
DICKINSON      SUNNY     68  41  37 S24G32    29.92S
BEACH          FAIR      68  43  40 S24G32    29.89S
CROSBY         FAIR      70  32  24 S20G30    29.89S
WATFORD CITY   FAIR      70  36  28 S21G29    29.88F
BISMARCK       CLOUDY    68  33  27 S23G32    30.02F
GRAND FORKS    MOSUNNY   71  24  17 S18G26    30.11F
FARGO          SUNNY     72  22  15 SE12G26   30.12F
BUFFALO SD       N/A     68  46  45 S25G37    29.85F
RAPID CITY     CLOUDY    59  44  57 SE15      29.97F
$$

REGIONAL REPORTS...WYOMING/IDAHO/WASHINGTON

CITY           SKY/WX    TMP DP  RH WIND       PRES   REMARKS
GILLETTE       SUNNY     57  45  64 S23G29    29.89F
SHERIDAN       SUNNY     67  46  47 VRB5      29.82F
BUFFALO WY       N/A     65  32  29 MISG      29.87F
CODY           PTSUNNY   64  39  39 CALM      29.85F
YELLOWSTONE LA   N/A     47  31  53 E6        30.01F
IDAHO FALLS    PTSUNNY   61  43  51 CALM      29.87S
SALMON           N/A     57  36  44 CALM      29.82F
BOISE          SUNNY     62  36  37 NW13      29.88R
SPOKANE        MOSUNNY   52  31  44 SW17      29.94R
$$

REGIONAL REPORTS...ALBERTA

CITY           SKY/WX    TMP DP  RH WIND       PRES   REMARKS
EDMONTON       CLOUDY    50  36  57 E8        29.73S
CALGARY        PTSUNNY   59  32  36 N12       29.69S
LETHBRIDGE     PTSUNNY   66  30  26 SW18G28   29.71S
MEDICINE HAT   PTSUNNY   70  36  28 S14G24    29.72R
$$

REGIONAL REPORTS...SASKATCHEWAN

CITY           SKY/WX    TMP DP  RH WIND       PRES   REMARKS
SWIFT CURRENT  SUNNY     70  41  35 SW20G25   29.73S
REGINA         MOSUNNY   66  37  34 SE25      29.82F
SASKATOON      MOSUNNY   61  41  48 E16G22    29.79F
$$



USA.gov is the U.S. government's official web portal to all federal, state and local government web resources and services.